• MPC Preparation (Info)

  • MPEC 2013-P02 : 2013 ON5

    The following Minor Planet Electronic Circular may be linked-to from your own Web pages, but must not otherwise be redistributed electronically.

    A form allowing access to any MPEC is at the bottom of this page.


    Read MPEC 2013-P01 Read MPEC 2013-P03


    M.P.E.C. 2013-P02                                Issued 2013 Aug. 1, 13:00 UT
    
         The Minor Planet Electronic Circulars contain information on unusual
             minor planets and routine data on comets.  They are published
       on behalf of Commission 20 of the International Astronomical Union by the
              Minor Planet Center, Smithsonian Astrophysical Observatory,
                              Cambridge, MA 02138, U.S.A.
    
                 Prepared using the Tamkin Foundation Computer Network
    
                                  MPC@CFA.HARVARD.EDU
                URL https://www.minorplanetcenter.net/    ISSN 1523-6714
    
                                       2013 ON5
    
    Observations:
         K13O05N* C2013 07 20.58932 02 15 42.998+06 54 46.51         20.5 wLEP002F51
         K13O05N  C2013 07 20.59459 02 15 43.964+06 54 48.00         20.3 wLEP002F51
         K13O05N  C2013 07 20.59985 02 15 44.912+06 54 49.44         20.3 wLEP002F51
         K13O05N  C2013 07 20.60613 02 15 46.051+06 54 50.98         20.3 wLEP002F51
         K13O05N KC2013 07 24.39340302 27 10.99 +07 09 33.1          20.4 RqEP002W86
         K13O05N KC2013 07 24.39992102 27 12.13 +07 09 34.5          20.2 RqEP002W86
         K13O05N KC2013 07 24.40513302 27 13.03 +07 09 35.5          20.2 RqEP002W86
         K13O05N KC2013 08 01.08752 02 48 27.01 +07 27 57.1                tEP002204
         K13O05N KC2013 08 01.10448 02 48 29.66 +07 27 58.8          20.3 RtEP002204
         K13O05N KC2013 08 01.15350102 48 37.01 +07 28 19.3          21.0 VqEP002K91
         K13O05N KC2013 08 01.16132002 48 38.20 +07 28 20.3          20.7 VqEP002K91
         K13O05N KC2013 08 01.16920802 48 39.38 +07 28 20.9          20.7 VqEP002K91
    
    Observer details:
    204 Schiaparelli Observatory.  Observer L. Buzzi.  0.60-m f/4.64 reflector
        + CCD.
    F51 Pan-STARRS 1, Haleakala.  Observers N. Primak, A. Schultz, T. Goggia,
        K. Chambers.  Measurer PS1 Science Consortium.  1.8-m Ritchey-Chretien
        + CCD.
    K91 Sutherland-LCOGT A.  Observer T. Lister.  1.0-m f/8 Ritchey-Chretien + CCD.
    W86 Cerro Tololo-LCOGT B.  Observer T. Lister.  1.0-m f/8 Ritchey-Chretien
        + CCD.
    
    Orbital elements:
    2013 ON5                                                 Earth MOID = 0.1073 AU
    Epoch 2013 Apr. 18.0 TT = JDT 2456400.5                 MPC
    M 340.93071              (2000.0)            P               Q
    n   0.27331558     Peri.  185.71335     +0.63103762     +0.76825463
    a   2.3515802      Node   123.46461     -0.70653398     +0.62644562
    e   0.5230726      Incl.    7.41030     -0.32031431     +0.13172206
    P   3.61           H   18.7           G   0.15           U   7
    Residuals in seconds of arc
    130720 F51  0.0   0.1-    130724 W86  0.2-  0.0     130801 204  0.5+  0.1+
    130720 F51  0.1+  0.0     130724 W86  0.1+  0.0     130801 K91  0.1-  0.2-
    130720 F51  0.0   0.1+    130724 W86  0.2+  0.0     130801 K91  0.0   0.1+
    130720 F51  0.0   0.0     130801 204  0.3-  0.0     130801 K91  0.1-  0.0
    
    Ephemeris:
    2013 ON5                 a,e,i = 2.35, 0.52, 7                   q = 1.1215
    Date    TT    R. A. (2000) Decl.     Delta      r     Elong.  Phase     V
    2013 07 02    01 10 43.5 +04 48 35   0.6402  1.1232    82.0    63.7    20.2
    ...
    2013 07 17    02 04 18.6 +06 37 41   0.6642  1.1463    83.2    61.7    20.3
    ...
    2013 07 25    02 28 56.8 +07 11 25   0.6771  1.1689    84.8    59.9    20.3
    ...
    2013 07 31    02 45 35.7 +07 26 19   0.6858  1.1901    86.5    58.4    20.4
    2013 08 01    02 48 12.8 +07 27 57   0.6871  1.1940    86.8    58.1    20.4
    2013 08 02    02 50 47.2 +07 29 22   0.6884  1.1979    87.2    57.8    20.4
    ...
    2013 08 08    03 05 16.3 +07 33 04   0.6951  1.2234    89.4    56.0    20.4
    ...
    2013 08 16    03 21 58.3 +07 25 58   0.7015  1.2617    93.0    53.3    20.4
    ...
    2013 08 31    03 44 54.7 +06 40 01   0.7056  1.3443   101.8    47.3    20.4
    
    A. U. Tomatic                (C) Copyright 2013 MPC           M.P.E.C. 2013-P02
    

    Read MPEC 2013-P01 Read MPEC 2013-P03


    MPEC number:

    Enter an MPEC number in one of the following forms:

    • 1997-B01 (the full form)
    • J97B01 (the packed version of the full form)
    • B01 (the abbreviated form)